{"data":{"norad_id":56926,"epoch":"2026-05-24T21:36:31.562784Z","epoch_age_seconds":79739,"freshness":"FRESH","line1":"1 56926U 23083BC  26144.90036531 -.00003501  00000+0 -11782-3 0  9990","line2":"2 56926  43.0031   0.2730 0001111 259.5017 100.5709 15.27562098163452","mean_motion":15.27562098,"eccentricity":0.0001111,"inclination_deg":43.0031,"raan_deg":0.273,"arg_perigee_deg":259.5017,"mean_anomaly_deg":100.5709,"bstar":-0.00011782,"rev_number":16345,"period_min":94.267853456521,"perigee_km":482.34041786053,"apogee_km":483.86498532222,"semimajor_km":6861.2397015914,"source":"CELESTRAK","updated_at":"2026-05-25T13:38:18.207330Z"}}